This demonstration page uses our WeatherBlox Daily Observations layout. Learn more.

Left ArrowRight Arrow

Hourly Observations for June 4, 2017

Temp ( °F °C ) Dew Point ( °F °C ) Humidity (%) Winds ( mph kmh ) Pressure ( in mb ) Visibility ( mi km ) Precip ( " mm )
12:53 am 00:53 Clear 59 15 44 6.7 58 58 SSE 9 15 29.83 1010 10 16 0.00 0.00
1:53 am 01:53 Clear 59 15 45 7.2 60 60 E 6 9 29.82 1010 10 16 0.00 0.00
2:53 am 02:53 Clear 56 13.3 47 8.3 72 72 ESE 7 11 29.81 1010 10 16 0.00 0.00
3:53 am 03:53 Clear 54 12.2 46 7.8 75 75 Calm 29.81 1010 10 16 0.00 0.00
4:53 am 04:53 Clear 52 11.1 44 6.7 75 75 Calm 29.81 1010 10 16 0.00 0.00
5:53 am 05:53 Sunny 51 10.6 44 6.7 77 77 E 3 6 29.81 1009 10 16 0.00 0.00
6:53 am 06:53 Sunny 57 13.9 47 8.3 69 69 E 3 6 29.80 1009 10 16 0.00 0.00
7:53 am 07:53 Sunny 60 15.6 47 8.3 62 62 E 7 11 29.79 1009 10 16 0.00 0.00
8:53 am 08:53 Mostly Sunny 65 18.3 48 8.9 54 54 W 12 19 29.85 1011 10 16 0.00 0.00
9:53 am 09:53 Mostly Cloudy 66 18.9 47 8.3 50 50 WNW 8 13 29.86 1011 10 16 0.00 0.03
10:53 am 10:53 Mostly Sunny 73 22.8 46 7.8 38 38 VRB 3 6 29.83 1010 10 16 0.00 0.00
11:53 am 11:53 Sunny 80 26.7 49 9.4 34 34 ENE 7 11 29.78 1008 10 16 0.00 0.00
12:53 pm 12:53 Sunny 87 30.6 49 9.4 27 27 ESE 8 13 29.76 1008 10 16 0.00 0.00
1:53 pm 13:53 Sunny 92 33.3 50 10 24 24 NE 15 24 29.72 1007 10 16 0.00 0.00
2:53 pm 14:53 Sunny 93 33.9 41 5 16 16 ESE 3 6 29.70 1006 10 16 0.00 0.00
3:53 pm 15:53 Sunny 93 33.9 38 3.3 14 14 Calm 29.68 1005 10 16 0.00 0.00
4:53 pm 16:53 Sunny 94 34.4 37 2.8 14 14 Calm 29.67 1005 10 16 0.00 0.00
5:53 pm 17:53 Sunny 90 32.2 47 8.3 23 23 ESE 6 9 29.65 1004 10 16 0.00 0.00
6:11 pm 18:11 Partly Cloudy with Thunderstorms 87 30.6 46 7.8 24 24 E 9 15 29.53 1000 10 16 0.00 0.00
6:36 pm 18:36 Mostly Cloudy with Nearby Thunderstorms 84 29 46 8 27 27 SE 8 13 29.56 1001 10 16 0.00 0.00
6:47 pm 18:47 Mostly Cloudy 81 27 46 8 30 30 SW 23 37 29.59 1002 10 16 0.00 0.00
6:53 pm 18:53 Mostly Cloudy with Nearby Thunderstorms 77 25 50 10 39 39 SW 24 39 29.73 1007 10 16 0.00 0.03
7:01 pm 19:01 Mostly Cloudy with Strong Thunderstorms 69 20.6 58 14.4 68 68 SW 32 52 29.65 1004 3 5 0.04 1.02
7:21 pm 19:21 Cloudy with Light Rain 68 20 58 14.4 70 70 SSW 22 35 29.68 1005 10 16 0.08 2.03
7:29 pm 19:29 Cloudy with Nearby Thunderstorms 68 20 58 14.4 70 70 SSW 26 43 29.68 1005 10 16 0.08 2.03
7:44 pm 19:44 Mostly Cloudy 70 21 55 13 60 60 SSW 28 44 29.68 1005 10 16 0.00 0.00
7:53 pm 19:53 Partly Cloudy 71 21.7 54 12.2 55 55 SSW 32 52 29.77 1008 10 16 0.08 2.03
8:53 pm 20:53 Sunny 67 19.4 58 14.4 73 73 SW 5 7 29.72 1006 10 16 0.00 0.03
9:53 pm 21:53 Mostly Clear 66 18.9 59 15 78 78 Calm 29.72 1006 10 16 0.00 0.00
10:53 pm 22:53 Cloudy 70 21.1 53 11.7 55 55 E 3 6 29.70 1006 10 16 0.00 0.00
11:53 pm 23:53 Cloudy with Light Rain 69 20.6 54 12.2 59 59 WNW 17 28 29.77 1008 10 16 0.00 0.03

Powered by AerisWeather